Location: Westminster
(33.3626°N, 96.4619°W)
Time: 21:11:32
(UTC+00:00)

OAO 3 Rocket - Pass Details

Date: 05 July 2022
Orbit: 627 x 681 km, 35.0° (Epoch: 14 August)

Event Time Altitude Azimuth Distance (km) Brightness Sun altitude
Exits shadow 09:09:23 35° 285° (WNW) 1,096 4.1 -22.3°
Maximum altitude 09:11:30 82° 9° (N) 689 3.2 -22.0°
Drops below altitude 10° 09:16:27 10° 97° (E) 2,107 6.2 -21.3°
Sets 09:18:50 0° 98° (E) 3,017 7.0 -21.0°
